Retour au catalogue

THORAD DELTA 1 DEB

ActifSSO
NORAD 8437·DEBRIS·🇺🇸 United States

Lancé Nov 15, 1974 depuis Vandenberg Space Force Base

Loading…

Prochains Passages (prochaines 24 heures)

TLE

FraisSource: Space-Track

Époque: Sep 13, 2026, 23:44 UTC

1 08437U 74089CN  26256.98938918 -.00000019  00000-0  16513-3 0  9996
2 08437 101.9207 260.6552 0044026 313.4216  71.5765 12.58346512379711

Suivez THORAD DELTA 1 DEB en temps réel avec AllMySat

Download on the App Store